[[{"header":{"parameterUnit":"m.s-1","parameterCategory":1,"la1":30.2991,"la2":30.254,"lo1":-89.0895,"lo2":-89.0444,"dy":0.0017,"dx":0.0017,"nx":28,"ny":28,"refTime":"2025-07-09T03:00:00:Z","depth":0,"parameterNumber":2,"parameterNumberName":"U-component_of_WINDS"},"data":[0,0,0,0,0,0,0,0,0,0,0,0,0,0,0,0,0,0,0,0,0,0,0,0,0,0,0,0,0,0,0,0,0,0,0,0,0,0,0,0,0,0,0,0,0,0,0,0,0,0,0,0,0,0,0,0,0,0,4.0619,4.062,0,4.0737,4.0739,4.074,4.0676,4.0673,4.0669,4.0666,4.0789,4.0795,4.0801,0,0,0,0,0,0,0,0,0,0,0,0,0,4.0335,4.034,4.0619,4.062,4.0622,4.0737,4.0739,4.074,4.0676,4.0673,4.0669,4.0665,4.0787,4.0794,4.0802,0,0,0,0,0,0,0,0,0,0,0,0,0,4.0456,4.0342,4.0618,4.0604,4.0603,4.0737,4.0739,4.0741,4.0677,4.0672,4.0668,4.0663,4.0785,4.0794,4.0803,4.0958,0,0,4.0832,4.0836,0,0,0,0,0,0,0,0,4.0449,4.0467,4.0604,4.0605,4.0605,4.0687,4.0684,4.0814,4.0678,4.0649,4.0666,4.0661,4.0759,4.077,4.0803,4.0964,4.0969,4.0833,4.0838,4.0842,4.0845,0,0,0,0,0,0,0,4.0441,4.0461,4.0666,4.0606,4.0607,4.059,4.0602,4.0708,4.073,4.0651,4.0647,4.0662,4.0758,4.0794,4.0806,4.0971,4.0832,4.0841,4.0847,4.085,4.1259,4.1264,0,0,0,0,0,0,4.0434,4.0455,4.0662,4.0669,4.0514,4.0599,4.0613,4.0666,4.0729,4.0734,4.0666,4.0659,4.0781,4.0795,4.081,4.0991,4.0842,4.0851,4.0857,4.1254,4.126,4.1266,0,0,0,0,0,0,4.0428,4.0453,4.0657,4.0561,4.0585,4.0609,4.0669,4.067,4.0706,4.074,4.0743,4.0699,4.0777,4.0796,4.092,4.0995,4.0855,4.0864,4.1248,4.1256,4.1263,4.1359,0,0,0,0,0,0,4.042,4.0451,4.0511,4.0563,4.0591,4.0767,4.0674,4.0676,4.0722,4.0714,4.0771,4.0776,4.0775,4.0907,4.093,4.1005,4.0871,4.1241,4.1252,4.1261,4.1349,4.1369,4.1386,0,0,0,0,0,4.041,4.0535,4.0514,4.054,4.0666,4.0771,4.0787,4.0783,4.0729,4.0788,4.0809,4.0774,4.0984,4.092,4.0945,4.1025,4.1237,4.1249,4.126,4.1341,4.1365,4.1386,0,0,0,0,0,0,4.0493,4.0541,4.0519,4.0665,4.0714,4.076,4.0835,4.081,4.0876,4.0866,4.0858,4.0871,4.0999,4.1025,4.0953,4.1176,4.1101,4.1119,4.1154,4.1177,4.1196,4.1186,4.0879,0,0,0,0,0,4.0527,4.0609,4.0647,4.0771,4.0797,4.0812,4.0858,4.085,4.0901,4.0922,4.0952,4.1003,4.1079,4.113,4.1203,4.1353,4.1362,4.142,4.1438,4.1453,4.1468,4.1544,4.1569,4.1305,4.1305,4.1304,0,0,4.0601,4.0637,4.069,4.0789,4.0826,4.0909,4.083,4.0923,4.0983,4.0936,4.1053,4.1077,4.1133,4.127,4.1331,4.1295,4.1543,4.1468,4.148,4.1486,4.1559,4.1584,4.1606,4.1313,4.1311,4.131,0,0,4.0776,4.0813,4.0918,4.0957,4.1014,4.1022,4.1048,4.1097,4.111,4.1228,4.1193,4.1265,4.1399,4.1439,4.1476,4.1662,4.1631,4.1687,4.1782,4.1857,4.1878,4.1896,4.1959,4.1982,4.1701,4.1702,4.1702,0,4.086,4.0984,4.0976,4.107,4.1113,4.1072,4.1177,4.1215,4.1293,4.1323,4.1282,4.1445,4.1481,4.1623,4.1668,4.1701,4.1728,4.1679,4.1875,4.1894,4.1911,4.197,4.1994,4.1708,4.1707,4.1706,4.1706,0,4.1082,4.1168,4.1246,4.132,4.1372,4.1472,4.1478,4.1531,4.1518,4.1531,4.1649,4.1689,4.1767,4.1801,4.1791,4.1942,4.1917,4.1876,4.18,4.1942,4.1997,4.2021,4.1716,4.1714,4.1712,4.1711,0,0,4.1313,4.1379,4.1408,4.1439,4.1497,4.1563,4.1659,4.1734,4.1778,4.1834,4.1912,4.2024,4.1984,4.2027,4.2021,4.2087,4.2226,4.2037,4.2038,4.2067,4.239,4.2418,4.2445,4.2206,4.2211,4.2214,4.2384,0,4.1489,4.1656,4.165,4.1805,4.1883,4.1844,4.1927,4.1971,4.1984,4.2051,4.2066,4.2144,4.2089,4.2114,4.2177,4.2196,4.229,4.2184,4.2277,4.228,4.2261,4.2475,4.2506,4.2664,4.2406,4.241,4.2413,0,4.1717,4.1776,4.1939,4.1981,4.2013,4.2088,4.2154,4.222,4.2267,4.2272,4.2318,4.23,4.2395,4.2318,4.2447,4.2375,4.2413,4.2427,4.2433,4.244,4.2353,4.2484,4.2715,4.2737,4.2448,4.2445,4.2442,0,4.1864,4.1985,4.2097,4.2125,4.2179,4.2232,4.2257,4.23,4.2344,4.2402,4.2429,4.2498,4.2536,4.2589,4.2588,4.2533,4.2718,4.2642,4.2722,4.2722,4.2761,4.2758,4.2998,4.2791,4.2791,4.279,4.279,0,4.2059,4.2159,4.2163,4.2231,4.2341,4.2333,4.2442,4.2461,4.2499,4.2569,4.2541,4.2607,4.2604,4.2671,4.2672,4.2776,4.2794,4.2799,4.2798,4.28,4.2799,4.2823,4.2811,4.2796,4.2795,4.2794,4.2793,0,4.2242,4.2249,4.2367,4.2407,4.2419,4.2498,4.2531,4.2595,4.2605,4.2694,4.2715,4.2731,4.2808,4.2813,4.2903,4.2903,4.3028,4.3016,4.3011,4.3008,4.3087,4.3078,4.3348,4.3382,4.3156,4.3158,4.316,0,4.2364,4.244,4.2487,4.2531,4.2558,4.2631,4.2675,4.2669,4.2716,4.2774,4.283,4.2904,4.2962,4.3086,4.3105,4.3173,4.316,4.325,4.317,4.3169,4.3157,4.3151,4.3157,4.3265,4.3268,4.327,4.3271,0,4.258,4.2578,4.2643,4.2707,4.276,4.2811,4.2858,4.2896,4.2896,4.295,4.3027,4.3072,4.3162,4.3234,4.3299,4.3323,4.3297,4.3296,4.3318,4.332,4.3312,4.3313,4.305,4.329,4.3288,4.3287,4.3286,4.3285,4.2734,4.2797,4.2839,4.291,4.2944,4.2989,4.3049,4.3066,4.313,4.3201,4.3194,4.3279,4.3321,4.3405,4.3435,4.35,4.3469,4.3502,4.3509,4.3516,4.3522,4.3304,4.3512,4.3512,4.3511,4.3511,4.3511,0,4.2944,4.2968,4.3034,4.31,4.3155,4.3125,4.3174,4.3222,4.3297,4.3339,4.3396,4.3482,4.3552,4.3575,4.3642,4.3689,4.3679,4.3707,4.3702,4.3707,4.3548,4.3521,4.3714,4.3714,4.3714,4.3714,4.3714,4.3714,4.306,4.3164,4.3167,4.3287,4.3311,4.3392,4.3423,4.3462,4.3495,4.3593,4.3649,4.3664,4.3697,4.3766,4.3827,4.3832,4.3856,4.3889,4.3889,4.3739,4.3719,4.3699,4.3673,4.3895,4.3896,4.4042,4.4043,4.4044]},{"header":{"parameterUnit":"m.s-1","parameterCategory":1,"la1":30.2991,"la2":30.254,"lo1":-89.0895,"lo2":-89.0444,"dy":0.0017,"dx":0.0017,"nx":28,"ny":28,"refTime":"2025-07-09T03:00:00:Z","depth":0,"parameterNumber":3,"parameterNumberName":"V-component_of_WINDS"},"data":[0,0,0,0,0,0,0,0,0,0,0,0,0,0,0,0,0,0,0,0,0,0,0,0,0,0,0,0,0,0,0,0,0,0,0,0,0,0,0,0,0,0,0,0,0,0,0,0,0,0,0,0,0,0,0,0,0,0,5.7271,5.7272,0,5.7358,5.7358,5.7359,5.7307,5.7304,5.7302,5.73,5.7383,5.7388,5.7392,0,0,0,0,0,0,0,0,0,0,0,0,0,5.7053,5.7057,5.7271,5.7272,5.7273,5.7357,5.7359,5.736,5.7307,5.7304,5.7301,5.7298,5.7382,5.7387,5.7393,0,0,0,0,0,0,0,0,0,0,0,0,0,5.7144,5.7059,5.7271,5.7257,5.7257,5.7357,5.7359,5.736,5.7308,5.7304,5.7301,5.7297,5.738,5.7387,5.7394,5.751,0,0,5.7414,5.7417,0,0,0,0,0,0,0,0,5.7139,5.7152,5.7258,5.7258,5.7258,5.7318,5.7312,5.741,5.7309,5.7289,5.73,5.7295,5.7364,5.7372,5.7396,5.7514,5.7518,5.7415,5.7419,5.7422,5.7424,0,0,0,0,0,0,0,5.7133,5.7148,5.7305,5.726,5.726,5.7244,5.7253,5.7331,5.7346,5.729,5.7286,5.7298,5.7364,5.739,5.7398,5.7519,5.7415,5.7421,5.7425,5.7428,5.7732,5.7736,0,0,0,0,0,0,5.7129,5.7144,5.7302,5.7308,5.7189,5.7251,5.7261,5.7302,5.7345,5.7348,5.7301,5.7295,5.738,5.739,5.7401,5.7537,5.7422,5.7428,5.7432,5.7728,5.7733,5.7737,0,0,0,0,0,0,5.7124,5.7143,5.7299,5.7225,5.7243,5.7259,5.7306,5.7306,5.7332,5.7353,5.7355,5.7325,5.7378,5.7391,5.7483,5.7539,5.7432,5.7438,5.7723,5.773,5.7735,5.7813,0,0,0,0,0,0,5.7118,5.7142,5.7189,5.7226,5.7248,5.7382,5.7309,5.731,5.7345,5.7338,5.7377,5.738,5.7376,5.7473,5.749,5.7547,5.7443,5.7718,5.7726,5.7733,5.7806,5.7821,5.7834,0,0,0,0,0,5.7111,5.7207,5.7191,5.7211,5.7306,5.7385,5.7397,5.7392,5.735,5.7395,5.7408,5.7379,5.7531,5.7483,5.7501,5.7561,5.7715,5.7724,5.7733,5.7799,5.7818,5.7834,0,0,0,0,0,0,5.7175,5.7212,5.7195,5.7307,5.7344,5.7376,5.7434,5.7413,5.7461,5.7453,5.7442,5.7451,5.7546,5.7563,5.7509,5.7674,5.7616,5.7629,5.766,5.7678,5.7692,5.7685,5.7449,0,0,0,0,0,5.7203,5.7266,5.7294,5.739,5.7409,5.7418,5.7453,5.7445,5.7482,5.7497,5.7516,5.7552,5.7607,5.7644,5.7696,5.7808,5.7813,5.7858,5.7872,5.7884,5.7895,5.7951,5.797,5.7767,5.7767,5.7767,0,0,5.726,5.7288,5.7328,5.7403,5.7431,5.7493,5.7432,5.7502,5.7547,5.7507,5.7594,5.761,5.7648,5.7749,5.7795,5.7766,5.7952,5.7895,5.7905,5.7909,5.7962,5.7981,5.7999,5.7773,5.7772,5.7771,0,0,5.7395,5.7425,5.7506,5.7534,5.7576,5.7581,5.7601,5.7637,5.7645,5.7733,5.7703,5.7756,5.7853,5.788,5.7906,5.8049,5.8022,5.8066,5.814,5.8195,5.8211,5.8225,5.8273,5.8291,5.8077,5.8077,5.8077,0,5.7461,5.7556,5.755,5.7621,5.7653,5.762,5.77,5.7728,5.7785,5.7806,5.7774,5.7892,5.7916,5.8021,5.8055,5.8079,5.8098,5.8061,5.821,5.8224,5.8237,5.8282,5.83,5.8082,5.8081,5.8081,5.808,0,5.7632,5.7698,5.7758,5.7814,5.7853,5.7929,5.7931,5.7971,5.7959,5.7967,5.8054,5.8081,5.8137,5.8161,5.8151,5.8264,5.8245,5.8212,5.8152,5.8261,5.8303,5.8321,5.8089,5.8087,5.8086,5.8084,0,0,5.7812,5.7862,5.7884,5.7907,5.795,5.7999,5.8071,5.8127,5.8159,5.8199,5.8257,5.8338,5.8306,5.8336,5.8328,5.8377,5.8483,5.8337,5.8337,5.8361,5.8605,5.8629,5.8649,5.8466,5.847,5.8472,5.8601,0,5.7948,5.8076,5.807,5.8189,5.8247,5.8215,5.8277,5.8309,5.8317,5.8366,5.8374,5.843,5.8386,5.8404,5.8451,5.8461,5.8532,5.8451,5.8517,5.852,5.8507,5.8672,5.8697,5.8817,5.8618,5.8621,5.8623,0,5.8124,5.8169,5.8294,5.8324,5.8348,5.8405,5.8452,5.8501,5.8534,5.8536,5.8569,5.8552,5.8621,5.8561,5.8655,5.86,5.8627,5.8635,5.864,5.8644,5.8577,5.8678,5.8856,5.8873,5.8649,5.8647,5.8645,0,5.8239,5.8331,5.8416,5.8437,5.8476,5.8515,5.8533,5.8563,5.8595,5.8636,5.8656,5.8705,5.8731,5.8768,5.8763,5.872,5.8857,5.8798,5.8858,5.8858,5.8887,5.8885,5.907,5.8908,5.8908,5.8908,5.8907,0,5.839,5.8467,5.8468,5.852,5.8603,5.8595,5.8677,5.869,5.8716,5.8768,5.8743,5.8791,5.8783,5.8831,5.8828,5.8904,5.8917,5.8918,5.8916,5.8919,5.8919,5.8935,5.8926,5.8913,5.8912,5.8911,5.891,0,5.8532,5.8537,5.8627,5.8655,5.8664,5.8724,5.8747,5.8794,5.88,5.8865,5.888,5.8888,5.8943,5.8942,5.9005,5.9002,5.9094,5.9084,5.9083,5.908,5.914,5.9133,5.934,5.9365,5.9189,5.9191,5.9193,0,5.8628,5.8686,5.872,5.8753,5.8773,5.8827,5.886,5.8853,5.8887,5.8927,5.8969,5.9022,5.9063,5.9152,5.9161,5.9208,5.9197,5.9266,5.9203,5.9204,5.9194,5.919,5.9194,5.9277,5.9279,5.9281,5.9282,0,5.8795,5.8794,5.8842,5.889,5.8929,5.8967,5.9001,5.903,5.9026,5.9065,5.9121,5.9153,5.9216,5.9267,5.9311,5.9326,5.9303,5.9302,5.9318,5.9321,5.9317,5.9317,5.9114,5.9297,5.9295,5.9294,5.9294,5.9293,5.8915,5.8963,5.8994,5.9047,5.9072,5.9104,5.915,5.916,5.9207,5.9258,5.9251,5.9312,5.934,5.9397,5.9416,5.9462,5.9437,5.9462,5.9467,5.9473,5.9478,5.9311,5.9471,5.947,5.947,5.9469,5.9469,0,5.9078,5.9096,5.9145,5.9194,5.9235,5.921,5.9246,5.9281,5.9336,5.9365,5.9406,5.9468,5.9517,5.953,5.9576,5.961,5.96,5.9622,5.9618,5.9621,5.9499,5.9479,5.9629,5.9629,5.9629,5.9629,5.9629,5.9629,5.9168,5.9247,5.9249,5.9339,5.9355,5.9416,5.9438,5.9466,5.9489,5.956,5.96,5.9608,5.963,5.9677,5.9719,5.9721,5.9738,5.9764,5.9762,5.9647,5.9631,5.9615,5.9596,5.9769,5.9769,5.988,5.9881,5.9882]}]]